This demonstration page uses our WeatherBlox Daily Observations layout. Learn more.

Left ArrowRight Arrow

38.20091, -84.87328

Hourly Observations for July 13, 2022

Temp ( °F °C ) Dew Point ( °F °C ) Humidity (%) Winds ( mph kmh ) Pressure ( in mb ) Visibility ( mi km ) Precip ( " mm )
12:53 am 00:53 Clear 70 21.1 63 17.2 79 79 NNW 5 7 29.94 1014 10 16 0.00 0.00
1:53 am 01:53 Clear 68 20 63 17.2 84 84 Calm 29.95 1014 10 16 0.00 0.00
2:53 am 02:53 Clear 66 18.9 63 17.2 90 90 Calm 29.96 1015 10 16 0.00 0.00
3:53 am 03:53 Clear 66 18.9 63 17.2 90 90 Calm 29.96 1014 10 16 0.00 0.00
4:53 am 04:53 Clear 65 18.3 62 16.7 90 90 Calm 29.95 1014 10 16 0.00 0.00
5:53 am 05:53 Clear 63 17.2 60 15.6 90 90 Calm 29.95 1014 10 16 0.00 0.00
6:53 am 06:53 Sunny 63 17.2 61 16.1 93 93 Calm 29.97 1015 10 16 0.00 0.00
7:53 am 07:53 Partly Cloudy 68 20 63 17.2 84 84 Calm 29.99 1016 10 16 0.00 0.00
8:53 am 08:53 Hazy 73 22.8 65 18.3 76 76 Calm 30.00 1016 0 0 0.00 0.00
9:13 am 09:13 Mostly Sunny 74 23.3 66 18.9 76 76 undefined N/A 30.00 1016 10 16 0.00 0.00
9:53 am 09:53 Sunny 78 25.6 65 18.3 64 64 VRB 5 7 30.01 1016 N/A 0.00 0.00
10:53 am 10:53 Sunny 81 27.2 65 18.3 58 58 Calm 30.01 1016 10 16 0.00 0.00
11:53 am 11:53 Sunny 84 28.9 61 16.1 46 46 NNW 6 9 30.01 1016 10 16 0.00 0.00
12:53 pm 12:53 Mostly Sunny 83 28.3 62 16.7 49 49 NW 6 9 30.01 1016 10 16 0.00 0.00
1:53 pm 13:53 Partly Cloudy 83 28.3 61 16.1 48 48 WNW 7 11 30.01 1016 10 16 0.00 0.00
2:53 pm 14:53 Mostly Cloudy 86 30 62 16.7 45 45 WNW 8 13 30.00 1016 10 16 0.00 0.00
3:53 pm 15:53 Mostly Sunny 86 30 61 16.1 43 43 VRB 7 11 29.99 1016 10 16 0.00 0.00
4:53 pm 16:53 Sunny 86 30 60 15.6 42 42 NW 8 13 29.98 1015 10 16 0.00 0.00
5:53 pm 17:53 Sunny 85 29.4 60 15.6 43 43 VRB 7 11 29.97 1015 10 16 0.00 0.00
6:53 pm 18:53 Sunny 85 29.4 60 15.6 43 43 W 7 11 29.97 1015 10 16 0.00 0.00
7:53 pm 19:53 Sunny 83 28.3 61 16.1 48 48 Calm 29.97 1015 10 16 0.00 0.00
8:53 pm 20:53 Sunny 78 25.6 65 18.3 64 64 Calm 29.98 1015 10 16 0.00 0.00
9:53 pm 21:53 Clear 74 23.3 64 17.8 71 71 Calm 29.98 1015 10 16 0.00 0.00
10:53 pm 22:53 Clear 72 22.2 64 17.8 76 76 Calm 30.01 1016 10 16 0.00 0.00
11:53 pm 23:53 Clear 68 20 64 17.8 87 87 Calm 30.02 1017 10 16 0.00 0.00

Powered by AerisWeather